Time,TemperatureF,DewpointF,PressureIn,WindDirection,WindDirectionDegrees,WindSpeedMPH,WindSpeedGustMPH,Humidity,HourlyPrecipIn,Conditions,Clouds,dailyrainin,SolarRadiationWatts/m^2,SoftwareType,DateUTC
2013-12-30 00:03:00,31.3,22.3,30.30,NW,326,5.0,8.0,69,0.00,,,0.00,0,Wunderground v.1.15,2013-12-30 06:03:00,
2013-12-30 00:08:00,31.3,22.3,30.30,NNW,329,6.0,8.0,69,0.00,,,0.00,0,Wunderground v.1.15,2013-12-30 06:08:00,
2013-12-30 00:13:00,31.4,22.4,30.30,NNW,344,5.0,6.0,69,0.00,,,0.00,0,Wunderground v.1.15,2013-12-30 06:13:00,
2013-12-30 00:19:00,31.4,22.4,30.30,NW,316,4.0,8.0,69,0.00,,,0.00,0,Wunderground v.1.15,2013-12-30 06:19:00,
2013-12-30 00:24:00,31.2,22.2,30.31,NW,313,6.0,10.0,69,0.00,,,0.00,0,Wunderground v.1.15,2013-12-30 06:24:00,
2013-12-30 00:29:00,31.2,22.2,30.30,WNW,303,7.0,10.0,69,0.00,,,0.00,0,Wunderground v.1.15,2013-12-30 06:29:00,
2013-12-30 00:34:00,31.1,21.8,30.31,NW,317,7.0,13.0,68,0.00,,,0.00,0,Wunderground v.1.15,2013-12-30 06:34:00,
2013-12-30 00:39:00,31.0,21.7,30.31,NW,321,8.0,13.0,68,0.00,,,0.00,0,Wunderground v.1.15,2013-12-30 06:39:00,
2013-12-30 00:44:00,31.0,21.7,30.30,NNW,338,8.0,9.0,68,0.00,,,0.00,0,Wunderground v.1.15,2013-12-30 06:44:00,
2013-12-30 00:49:00,31.1,21.8,30.30,WNW,301,6.0,9.0,68,0.00,,,0.00,0,Wunderground v.1.15,2013-12-30 06:49:00,
2013-12-30 00:55:00,31.1,21.8,30.30,NNW,347,6.0,10.0,68,0.00,,,0.00,0,Wunderground v.1.15,2013-12-30 06:55:00,
2013-12-30 01:01:00,30.8,21.5,30.30,NW,315,8.0,8.0,68,0.00,,,0.00,0,Wunderground v.1.15,2013-12-30 07:01:00,
2013-12-30 01:06:00,30.8,21.5,30.30,NW,315,7.0,9.0,68,0.00,,,0.00,0,Wunderground v.1.15,2013-12-30 07:06:00,
2013-12-30 01:11:00,30.8,21.1,30.30,NNW,330,5.0,7.0,67,0.00,,,0.00,0,Wunderground v.1.15,2013-12-30 07:11:00,
2013-12-30 01:17:00,30.8,21.1,30.30,NNW,340,6.0,9.0,67,0.00,,,0.00,0,Wunderground v.1.15,2013-12-30 07:17:00,
2013-12-30 01:22:00,30.7,21.0,30.30,WNW,300,7.0,7.0,67,0.00,,,0.00,0,Wunderground v.1.15,2013-12-30 07:22:00,
2013-12-30 01:27:00,30.7,21.0,30.30,NW,317,6.0,8.0,67,0.00,,,0.00,0,Wunderground v.1.15,2013-12-30 07:27:00,
2013-12-30 01:33:00,30.7,21.0,30.30,NW,318,6.0,7.0,67,0.00,,,0.00,0,Wunderground v.1.15,2013-12-30 07:33:00,
2013-12-30 01:38:00,30.7,21.0,30.30,WNW,290,7.0,9.0,67,0.00,,,0.00,0,Wunderground v.1.15,2013-12-30 07:38:00,
2013-12-30 01:44:00,30.7,21.0,30.29,NNW,335,6.0,8.0,67,0.00,,,0.00,0,Wunderground v.1.15,2013-12-30 07:44:00,
2013-12-30 01:50:00,30.6,20.6,30.29,NNW,338,6.0,10.0,66,0.00,,,0.00,0,Wunderground v.1.15,2013-12-30 07:50:00,
2013-12-30 01:55:00,30.5,20.5,30.29,North,5,6.0,12.0,66,0.00,,,0.00,0,Wunderground v.1.15,2013-12-30 07:55:00,
2013-12-30 02:00:00,30.6,20.9,30.29,NNW,342,6.0,9.0,67,0.00,,,0.00,0,Wunderground v.1.15,2013-12-30 08:00:00,
2013-12-30 02:06:00,30.5,20.5,30.29,North,355,6.0,9.0,66,0.00,,,0.00,0,Wunderground v.1.15,2013-12-30 08:06:00,
2013-12-30 02:11:00,30.5,20.5,30.29,NW,311,7.0,7.0,66,0.00,,,0.00,0,Wunderground v.1.15,2013-12-30 08:11:00,
2013-12-30 02:16:00,30.5,20.5,30.29,NW,318,6.0,11.0,66,0.00,,,0.00,0,Wunderground v.1.15,2013-12-30 08:16:00,
2013-12-30 02:21:00,30.4,20.4,30.28,WNW,299,6.0,9.0,66,0.00,,,0.00,0,Wunderground v.1.15,2013-12-30 08:21:00,
2013-12-30 02:26:00,30.3,20.3,30.29,NW,317,6.0,11.0,66,0.00,,,0.00,0,Wunderground v.1.15,2013-12-30 08:26:00,
2013-12-30 02:31:00,30.3,19.9,30.28,NNW,329,7.0,8.0,65,0.00,,,0.00,0,Wunderground v.1.15,2013-12-30 08:31:00,
2013-12-30 02:37:00,30.4,20.4,30.28,North,350,7.0,8.0,66,0.00,,,0.00,0,Wunderground v.1.15,2013-12-30 08:37:00,
2013-12-30 02:42:00,30.5,20.1,30.28,NW,308,6.0,6.0,65,0.00,,,0.00,0,Wunderground v.1.15,2013-12-30 08:42:00,
2013-12-30 02:48:00,30.5,20.1,30.29,NNW,340,6.0,9.0,65,0.00,,,0.00,0,Wunderground v.1.15,2013-12-30 08:48:00,
2013-12-30 02:53:00,30.4,20.0,30.28,NNW,334,7.0,8.0,65,0.00,,,0.00,0,Wunderground v.1.15,2013-12-30 08:53:00,
2013-12-30 02:58:00,30.4,20.0,30.28,NNW,335,7.0,8.0,65,0.00,,,0.00,0,Wunderground v.1.15,2013-12-30 08:58:00,
2013-12-30 03:03:00,30.3,19.6,30.28,NNW,338,7.0,12.0,64,0.00,,,0.00,0,Wunderground v.1.15,2013-12-30 09:03:00,
2013-12-30 03:09:00,30.3,19.9,30.28,NW,325,7.0,12.0,65,0.00,,,0.00,0,Wunderground v.1.15,2013-12-30 09:09:00,
2013-12-30 03:14:00,30.4,20.0,30.29,NW,322,7.0,11.0,65,0.00,,,0.00,0,Wunderground v.1.15,2013-12-30 09:14:00,
2013-12-30 03:19:00,30.4,20.0,30.29,North,355,6.0,11.0,65,0.00,,,0.00,0,Wunderground v.1.15,2013-12-30 09:19:00,
2013-12-30 03:24:00,30.3,19.6,30.29,NNW,333,6.0,9.0,64,0.00,,,0.00,0,Wunderground v.1.15,2013-12-30 09:24:00,
2013-12-30 03:29:00,30.3,19.6,30.29,NW,311,6.0,9.0,64,0.00,,,0.00,0,Wunderground v.1.15,2013-12-30 09:29:00,
2013-12-30 03:35:00,30.4,19.7,30.29,NNE,13,5.0,9.0,64,0.00,,,0.00,0,Wunderground v.1.15,2013-12-30 09:35:00,
2013-12-30 03:40:00,30.4,19.3,30.29,NNW,337,5.0,9.0,63,0.00,,,0.00,0,Wunderground v.1.15,2013-12-30 09:40:00,
2013-12-30 03:45:00,30.5,19.4,30.29,WNW,298,5.0,6.0,63,0.00,,,0.00,0,Wunderground v.1.15,2013-12-30 09:45:00,
2013-12-30 03:50:00,30.5,19.4,30.29,NW,322,5.0,7.0,63,0.00,,,0.00,0,Wunderground v.1.15,2013-12-30 09:50:00,
2013-12-30 03:56:00,30.5,19.4,30.29,NNW,336,5.0,7.0,63,0.00,,,0.00,0,Wunderground v.1.15,2013-12-30 09:56:00,
2013-12-30 04:01:00,30.5,19.4,30.29,WNW,294,5.0,5.0,63,0.00,,,0.00,0,Wunderground v.1.15,2013-12-30 10:01:00,
2013-12-30 04:06:00,30.4,19.3,30.29,WNW,288,5.0,9.0,63,0.00,,,0.00,0,Wunderground v.1.15,2013-12-30 10:06:00,
2013-12-30 04:11:00,30.3,18.8,30.29,NW,317,6.0,6.0,62,0.00,,,0.00,0,Wunderground v.1.15,2013-12-30 10:11:00,
2013-12-30 04:16:00,30.4,18.9,30.29,North,360,6.0,11.0,62,0.00,,,0.00,0,Wunderground v.1.15,2013-12-30 10:16:00,
2013-12-30 04:22:00,30.4,18.5,30.29,NNW,345,5.0,9.0,61,0.00,,,0.00,0,Wunderground v.1.15,2013-12-30 10:22:00,
2013-12-30 04:28:00,30.3,18.5,30.28,WNW,302,6.0,9.0,61,0.00,,,0.00,0,Wunderground v.1.15,2013-12-30 10:28:00,
2013-12-30 04:33:00,30.3,18.5,30.28,NNE,26,5.0,6.0,61,0.00,,,0.00,0,Wunderground v.1.15,2013-12-30 10:33:00,
2013-12-30 04:38:00,30.4,18.5,30.28,North,360,6.0,10.0,61,0.00,,,0.00,0,Wunderground v.1.15,2013-12-30 10:38:00,
2013-12-30 04:43:00,30.3,18.5,30.28,North,5,6.0,8.0,61,0.00,,,0.00,0,Wunderground v.1.15,2013-12-30 10:43:00,
2013-12-30 04:49:00,30.3,18.5,30.28,NNW,336,6.0,8.0,61,0.00,,,0.00,0,Wunderground v.1.15,2013-12-30 10:49:00,
2013-12-30 04:54:00,30.3,18.1,30.28,North,355,6.0,8.0,60,0.00,,,0.00,0,Wunderground v.1.15,2013-12-30 10:54:00,
2013-12-30 05:01:00,30.1,17.9,30.27,NW,321,8.0,9.0,60,0.00,,,0.00,0,Wunderground v.1.15,2013-12-30 11:01:00,
2013-12-30 05:06:00,30.1,17.9,30.28,NNW,336,7.0,10.0,60,0.00,,,0.00,0,Wunderground v.1.15,2013-12-30 11:06:00,
2013-12-30 05:11:00,30.1,17.9,30.27,NW,319,7.0,7.0,60,0.00,,,0.00,0,Wunderground v.1.15,2013-12-30 11:11:00,
2013-12-30 05:17:00,30.0,17.8,30.27,North,5,6.0,9.0,60,0.00,,,0.00,0,Wunderground v.1.15,2013-12-30 11:17:00,
2013-12-30 05:23:00,29.9,18.1,30.28,NW,311,5.0,5.0,61,0.00,,,0.00,0,Wunderground v.1.15,2013-12-30 11:23:00,
2013-12-30 05:28:00,29.7,17.9,30.28,NNW,344,6.0,15.0,61,0.00,,,0.00,0,Wunderground v.1.15,2013-12-30 11:28:00,
2013-12-30 05:33:00,29.7,17.9,30.28,NW,323,7.0,7.0,61,0.00,,,0.00,0,Wunderground v.1.15,2013-12-30 11:33:00,
2013-12-30 05:38:00,29.6,17.8,30.28,NNW,328,6.0,8.0,61,0.00,,,0.00,0,Wunderground v.1.15,2013-12-30 11:38:00,
2013-12-30 05:43:00,29.6,18.2,30.28,NNW,334,5.0,7.0,62,0.00,,,0.00,0,Wunderground v.1.15,2013-12-30 11:43:00,
2013-12-30 05:48:00,29.4,18.0,30.28,NW,317,5.0,8.0,62,0.00,,,0.00,0,Wunderground v.1.15,2013-12-30 11:48:00,
2013-12-30 05:53:00,29.3,17.5,30.28,NW,309,6.0,13.0,61,0.00,,,0.00,0,Wunderground v.1.15,2013-12-30 11:53:00,
2013-12-30 05:58:00,29.2,17.4,30.28,NNW,333,6.0,13.0,61,0.00,,,0.00,0,Wunderground v.1.15,2013-12-30 11:58:00,
2013-12-30 06:04:00,29.1,17.3,30.28,NNW,336,6.0,10.0,61,0.00,,,0.00,0,Wunderground v.1.15,2013-12-30 12:04:00,
2013-12-30 06:09:00,29.0,17.6,30.29,NW,313,7.0,12.0,62,0.00,,,0.00,0,Wunderground v.1.15,2013-12-30 12:09:00,
2013-12-30 06:14:00,29.0,17.6,30.29,NW,326,6.0,8.0,62,0.00,,,0.00,0,Wunderground v.1.15,2013-12-30 12:14:00,
2013-12-30 06:20:00,29.0,17.6,30.29,NNW,342,5.0,7.0,62,0.00,,,0.00,0,Wunderground v.1.15,2013-12-30 12:20:00,
2013-12-30 06:25:00,29.0,17.6,30.29,WNW,301,6.0,8.0,62,0.00,,,0.00,0,Wunderground v.1.15,2013-12-30 12:25:00,
2013-12-30 06:30:00,29.0,17.6,30.30,North,5,6.0,7.0,62,0.00,,,0.00,0,Wunderground v.1.15,2013-12-30 12:30:00,
2013-12-30 06:36:00,28.9,17.5,30.30,NNW,331,7.0,10.0,62,0.00,,,0.00,0,Wunderground v.1.15,2013-12-30 12:36:00,
2013-12-30 06:42:00,29.0,17.6,30.30,NNW,327,6.0,7.0,62,0.00,,,0.00,0,Wunderground v.1.15,2013-12-30 12:42:00,
2013-12-30 06:47:00,28.9,17.1,30.30,NNW,338,6.0,10.0,61,0.00,,,0.00,0,Wunderground v.1.15,2013-12-30 12:47:00,
2013-12-30 06:52:00,28.9,17.1,30.30,NNW,336,6.0,9.0,61,0.00,,,0.00,0,Wunderground v.1.15,2013-12-30 12:52:00,
2013-12-30 06:57:00,28.9,17.1,30.30,NW,315,6.0,9.0,61,0.00,,,0.00,0,Wunderground v.1.15,2013-12-30 12:57:00,
2013-12-30 07:02:00,29.0,17.2,30.30,North,11,4.0,4.0,61,0.00,,,0.00,0,Wunderground v.1.15,2013-12-30 13:02:00,
2013-12-30 07:08:00,29.1,17.3,30.30,NNW,329,3.0,6.0,61,0.00,,,0.00,0,Wunderground v.1.15,2013-12-30 13:08:00,
2013-12-30 07:13:00,29.1,16.5,30.30,NNW,333,4.0,6.0,59,0.00,,,0.00,0,Wunderground v.1.15,2013-12-30 13:13:00,
2013-12-30 07:18:00,29.1,16.1,30.31,NW,322,5.0,6.0,58,0.00,,,0.00,0,Wunderground v.1.15,2013-12-30 13:18:00,
2013-12-30 07:23:00,28.9,15.6,30.31,NW,316,6.0,7.0,57,0.00,,,0.00,0,Wunderground v.1.15,2013-12-30 13:23:00,
2013-12-30 07:28:00,29.0,15.7,30.32,NW,325,6.0,9.0,57,0.00,,,0.00,0,Wunderground v.1.15,2013-12-30 13:28:00,
2013-12-30 07:34:00,28.8,15.1,30.32,WNW,292,6.0,9.0,56,0.00,,,0.00,0,Wunderground v.1.15,2013-12-30 13:34:00,
2013-12-30 07:39:00,28.8,15.5,30.32,NNW,327,6.0,9.0,57,0.00,,,0.00,0,Wunderground v.1.15,2013-12-30 13:39:00,
2013-12-30 07:44:00,28.7,15.4,30.32,North,5,6.0,6.0,57,0.00,,,0.00,5,Wunderground v.1.15,2013-12-30 13:44:00,
2013-12-30 07:50:00,28.8,15.9,30.33,NNW,335,4.0,6.0,58,0.00,,,0.00,7,Wunderground v.1.15,2013-12-30 13:50:00,
2013-12-30 07:56:00,28.7,15.4,30.33,North,355,3.0,7.0,57,0.00,,,0.00,9,Wunderground v.1.15,2013-12-30 13:56:00,
2013-12-30 08:01:00,28.7,15.4,30.33,North,5,4.0,4.0,57,0.00,,,0.00,11,Wunderground v.1.15,2013-12-30 14:01:00,
2013-12-30 08:06:00,28.7,15.4,30.33,NW,313,4.0,5.0,57,0.00,,,0.00,28,Wunderground v.1.15,2013-12-30 14:06:00,
2013-12-30 08:11:00,28.8,15.5,30.34,NNW,342,3.0,5.0,57,0.00,,,0.00,35,Wunderground v.1.15,2013-12-30 14:11:00,
2013-12-30 08:17:00,28.8,15.5,30.34,North,355,3.0,5.0,57,0.00,,,0.00,40,Wunderground v.1.15,2013-12-30 14:17:00,
2013-12-30 08:22:00,28.9,15.6,30.34,NNW,341,3.0,3.0,57,0.00,,,0.00,51,Wunderground v.1.15,2013-12-30 14:22:00,
2013-12-30 08:28:00,28.9,15.6,30.34,NNW,333,2.0,5.0,57,0.00,,,0.00,63,Wunderground v.1.15,2013-12-30 14:28:00,
2013-12-30 08:33:00,28.8,15.5,30.34,NNW,331,3.0,3.0,57,0.00,,,0.00,46,Wunderground v.1.15,2013-12-30 14:33:00,
2013-12-30 08:38:00,28.6,15.3,30.35,NNW,331,2.0,3.0,57,0.00,,,0.00,51,Wunderground v.1.15,2013-12-30 14:38:00,
2013-12-30 08:43:00,28.7,15.4,30.35,NNW,331,2.0,2.0,57,0.00,,,0.00,162,Wunderground v.1.15,2013-12-30 14:43:00,
2013-12-30 08:48:00,29.0,15.2,30.35,ENE,64,1.0,4.0,56,0.00,,,0.00,176,Wunderground v.1.15,2013-12-30 14:48:00,
2013-12-30 08:54:00,29.3,14.7,30.35,NNE,22,2.0,4.0,54,0.00,,,0.00,192,Wunderground v.1.15,2013-12-30 14:54:00,
2013-12-30 09:01:00,29.5,14.9,30.35,North,11,2.0,5.0,54,0.00,,,0.00,211,Wunderground v.1.15,2013-12-30 15:01:00,
2013-12-30 09:06:00,29.5,14.9,30.36,NNW,327,3.0,5.0,54,0.00,,,0.00,225,Wunderground v.1.15,2013-12-30 15:06:00,
2013-12-30 09:11:00,29.6,15.0,30.36,NW,316,3.0,3.0,54,0.00,,,0.00,239,Wunderground v.1.15,2013-12-30 15:11:00,
2013-12-30 09:16:00,29.9,15.3,30.36,WNW,293,3.0,3.0,54,0.00,,,0.00,253,Wunderground v.1.15,2013-12-30 15:16:00,
2013-12-30 09:21:00,30.1,15.0,30.36,NNW,342,4.0,4.0,53,0.00,,,0.00,267,Wunderground v.1.15,2013-12-30 15:21:00,
2013-12-30 09:27:00,30.1,15.0,30.37,NW,321,3.0,7.0,53,0.00,,,0.00,285,Wunderground v.1.15,2013-12-30 15:27:00,
2013-12-30 09:32:00,30.3,15.6,30.37,NW,319,3.0,3.0,54,0.00,,,0.00,299,Wunderground v.1.15,2013-12-30 15:32:00,
2013-12-30 09:37:00,30.6,15.9,30.36,NNW,342,2.0,8.0,54,0.00,,,0.00,313,Wunderground v.1.15,2013-12-30 15:37:00,
2013-12-30 09:42:00,30.7,16.0,30.38,NW,325,3.0,4.0,54,0.00,,,0.00,329,Wunderground v.1.15,2013-12-30 15:42:00,
2013-12-30 09:47:00,30.4,15.3,30.38,West,274,5.0,6.0,53,0.00,,,0.00,341,Wunderground v.1.15,2013-12-30 15:47:00,
2013-12-30 09:52:00,30.5,15.4,30.38,NNW,334,5.0,6.0,53,0.00,,,0.00,355,Wunderground v.1.15,2013-12-30 15:52:00,
2013-12-30 09:57:00,30.8,15.7,30.39,North,355,5.0,6.0,53,0.00,,,0.00,366,Wunderground v.1.15,2013-12-30 15:57:00,
2013-12-30 10:02:00,30.8,15.2,30.38,North,355,5.0,5.0,52,0.00,,,0.00,380,Wunderground v.1.15,2013-12-30 16:02:00,
2013-12-30 10:08:00,31.1,15.5,30.38,NW,313,4.0,6.0,52,0.00,,,0.00,394,Wunderground v.1.15,2013-12-30 16:08:00,
2013-12-30 10:14:00,31.2,15.6,30.38,NW,323,4.0,7.0,52,0.00,,,0.00,410,Wunderground v.1.15,2013-12-30 16:14:00,
2013-12-30 10:19:00,31.1,15.5,30.39,NW,308,5.0,7.0,52,0.00,,,0.00,422,Wunderground v.1.15,2013-12-30 16:19:00,
2013-12-30 10:24:00,31.2,15.6,30.38,North,5,5.0,11.0,52,0.00,,,0.00,432,Wunderground v.1.15,2013-12-30 16:24:00,
2013-12-30 10:29:00,31.3,16.1,30.39,North,360,5.0,11.0,53,0.00,,,0.00,443,Wunderground v.1.15,2013-12-30 16:29:00,
2013-12-30 10:34:00,31.3,16.1,30.39,WNW,286,4.0,5.0,53,0.00,,,0.00,457,Wunderground v.1.15,2013-12-30 16:34:00,
2013-12-30 10:39:00,31.8,16.6,30.39,NNW,333,4.0,7.0,53,0.00,,,0.00,464,Wunderground v.1.15,2013-12-30 16:39:00,
2013-12-30 10:44:00,32.0,16.8,30.39,NW,324,3.0,4.0,53,0.00,,,0.00,473,Wunderground v.1.15,2013-12-30 16:44:00,
2013-12-30 10:49:00,32.0,16.3,30.39,NW,305,4.0,8.0,52,0.00,,,0.00,482,Wunderground v.1.15,2013-12-30 16:49:00,
2013-12-30 10:54:00,31.9,16.7,30.38,North,5,5.0,6.0,53,0.00,,,0.00,492,Wunderground v.1.15,2013-12-30 16:54:00,
2013-12-30 10:59:00,32.1,16.9,30.39,WNW,295,4.0,7.0,53,0.00,,,0.00,499,Wunderground v.1.15,2013-12-30 16:59:00,
2013-12-30 11:04:00,32.3,16.2,30.38,NE,49,5.0,7.0,51,0.00,,,0.00,510,Wunderground v.1.15,2013-12-30 17:04:00,
2013-12-30 11:10:00,32.8,17.1,30.38,NW,315,5.0,7.0,52,0.00,,,0.00,520,Wunderground v.1.15,2013-12-30 17:10:00,
2013-12-30 11:15:00,33.2,16.5,30.39,NNE,13,4.0,5.0,50,0.00,,,0.00,529,Wunderground v.1.15,2013-12-30 17:15:00,
2013-12-30 11:21:00,33.6,17.4,30.37,NNW,348,3.0,4.0,51,0.00,,,0.00,540,Wunderground v.1.15,2013-12-30 17:21:00,
2013-12-30 11:26:00,33.2,16.5,30.38,North,360,4.0,4.0,50,0.00,,,0.00,543,Wunderground v.1.15,2013-12-30 17:26:00,
2013-12-30 11:31:00,32.9,16.7,30.37,NNE,17,5.0,5.0,51,0.00,,,0.00,547,Wunderground v.1.15,2013-12-30 17:31:00,
2013-12-30 11:36:00,33.4,16.7,30.37,North,9,4.0,8.0,50,0.00,,,0.00,555,Wunderground v.1.15,2013-12-30 17:36:00,
2013-12-30 11:41:00,33.2,16.1,30.37,NNE,32,5.0,5.0,49,0.00,,,0.00,561,Wunderground v.1.15,2013-12-30 17:41:00,
2013-12-30 11:46:00,33.4,16.7,30.36,NNE,15,5.0,6.0,50,0.00,,,0.00,564,Wunderground v.1.15,2013-12-30 17:46:00,
2013-12-30 11:52:00,33.8,17.1,30.37,NW,319,4.0,4.0,50,0.00,,,0.00,570,Wunderground v.1.15,2013-12-30 17:52:00,
2013-12-30 11:57:00,34.3,17.6,30.36,WNW,292,3.0,7.0,50,0.00,,,0.00,575,Wunderground v.1.15,2013-12-30 17:57:00,
2013-12-30 12:02:00,34.3,16.6,30.36,NW,319,4.0,4.0,48,0.00,,,0.00,577,Wunderground v.1.15,2013-12-30 18:02:00,
2013-12-30 12:07:00,34.2,16.5,30.35,West,277,5.0,7.0,48,0.00,,,0.00,578,Wunderground v.1.15,2013-12-30 18:07:00,
2013-12-30 12:12:00,34.6,16.9,30.36,NW,321,5.0,9.0,48,0.00,,,0.00,582,Wunderground v.1.15,2013-12-30 18:12:00,
2013-12-30 12:17:00,34.3,16.6,30.35,WNW,286,5.0,9.0,48,0.00,,,0.00,582,Wunderground v.1.15,2013-12-30 18:17:00,
2013-12-30 12:22:00,35.0,17.3,30.34,NW,318,4.0,9.0,48,0.00,,,0.00,587,Wunderground v.1.15,2013-12-30 18:22:00,
2013-12-30 12:27:00,35.2,17.4,30.34,SW,227,4.0,9.0,48,0.00,,,0.00,591,Wunderground v.1.15,2013-12-30 18:27:00,
2013-12-30 12:32:00,36.0,17.7,30.34,NNE,18,4.0,4.0,47,0.00,,,0.00,559,Wunderground v.1.15,2013-12-30 18:32:00,
2013-12-30 12:37:00,36.0,17.2,30.34,West,273,3.0,4.0,46,0.00,,,0.00,563,Wunderground v.1.15,2013-12-30 18:37:00,
2013-12-30 12:42:00,36.0,17.7,30.33,West,259,3.0,4.0,47,0.00,,,0.00,601,Wunderground v.1.15,2013-12-30 18:42:00,
2013-12-30 12:47:00,36.5,17.7,30.33,WNW,283,3.0,6.0,46,0.00,,,0.00,520,Wunderground v.1.15,2013-12-30 18:47:00,
2013-12-30 12:53:00,36.0,16.7,30.33,NNE,27,3.0,3.0,45,0.00,,,0.00,587,Wunderground v.1.15,2013-12-30 18:53:00,
2013-12-30 12:58:00,36.3,17.0,30.33,NNW,331,3.0,7.0,45,0.00,,,0.00,587,Wunderground v.1.15,2013-12-30 18:58:00,
2013-12-30 13:03:00,36.6,17.2,30.33,West,274,4.0,4.0,45,0.00,,,0.00,578,Wunderground v.1.15,2013-12-30 19:03:00,
2013-12-30 13:08:00,36.7,17.3,30.32,North,355,3.0,6.0,45,0.00,,,0.00,577,Wunderground v.1.15,2013-12-30 19:08:00,
2013-12-30 13:14:00,37.0,17.1,30.32,NW,307,3.0,5.0,44,0.00,,,0.00,580,Wunderground v.1.15,2013-12-30 19:14:00,
2013-12-30 13:19:00,37.0,17.1,30.32,WSW,242,3.0,8.0,44,0.00,,,0.00,584,Wunderground v.1.15,2013-12-30 19:19:00,
2013-12-30 13:24:00,37.2,17.3,30.32,WNW,302,4.0,4.0,44,0.00,,,0.00,571,Wunderground v.1.15,2013-12-30 19:24:00,
2013-12-30 13:29:00,37.7,17.7,30.31,NW,317,3.0,5.0,44,0.00,,,0.00,559,Wunderground v.1.15,2013-12-30 19:29:00,
2013-12-30 13:34:00,38.0,18.0,30.31,WNW,289,3.0,7.0,44,0.00,,,0.00,554,Wunderground v.1.15,2013-12-30 19:34:00,
2013-12-30 13:39:00,38.0,17.5,30.31,WNW,286,4.0,8.0,43,0.00,,,0.00,547,Wunderground v.1.15,2013-12-30 19:39:00,
2013-12-30 13:44:00,38.5,18.4,30.31,West,275,4.0,4.0,44,0.00,,,0.00,540,Wunderground v.1.15,2013-12-30 19:44:00,
2013-12-30 13:49:00,38.9,17.7,30.31,NW,322,3.0,7.0,42,0.00,,,0.00,533,Wunderground v.1.15,2013-12-30 19:49:00,
2013-12-30 13:55:00,38.9,17.7,30.31,West,261,5.0,6.0,42,0.00,,,0.00,524,Wunderground v.1.15,2013-12-30 19:55:00,
2013-12-30 14:00:00,38.7,18.1,30.32,NNW,332,5.0,5.0,43,0.00,,,0.00,515,Wunderground v.1.15,2013-12-30 20:00:00,
2013-12-30 14:06:00,39.2,18.5,30.31,WNW,282,4.0,8.0,43,0.00,,,0.00,504,Wunderground v.1.15,2013-12-30 20:06:00,
2013-12-30 14:11:00,38.8,17.6,30.31,WNW,287,3.0,6.0,42,0.00,,,0.00,497,Wunderground v.1.15,2013-12-30 20:11:00,
2013-12-30 14:16:00,38.6,18.0,30.31,NW,309,5.0,8.0,43,0.00,,,0.00,492,Wunderground v.1.15,2013-12-30 20:16:00,
2013-12-30 14:22:00,38.7,18.1,30.31,WNW,300,4.0,9.0,43,0.00,,,0.00,478,Wunderground v.1.15,2013-12-30 20:22:00,
2013-12-30 14:27:00,38.9,17.7,30.31,WNW,283,4.0,9.0,42,0.00,,,0.00,471,Wunderground v.1.15,2013-12-30 20:27:00,
2013-12-30 14:32:00,39.3,18.6,30.30,WNW,298,4.0,5.0,43,0.00,,,0.00,461,Wunderground v.1.15,2013-12-30 20:32:00,
2013-12-30 14:37:00,39.2,17.4,30.30,NNW,344,5.0,8.0,41,0.00,,,0.00,450,Wunderground v.1.15,2013-12-30 20:37:00,
2013-12-30 14:42:00,39.0,17.8,30.30,WSW,252,5.0,5.0,42,0.00,,,0.00,439,Wunderground v.1.15,2013-12-30 20:42:00,
2013-12-30 14:47:00,39.6,18.4,30.30,WNW,293,3.0,5.0,42,0.00,,,0.00,431,Wunderground v.1.15,2013-12-30 20:47:00,
2013-12-30 14:52:00,39.7,17.9,30.30,NNW,333,4.0,9.0,41,0.00,,,0.00,417,Wunderground v.1.15,2013-12-30 20:52:00,
2013-12-30 14:57:00,39.7,17.9,30.30,NW,325,4.0,9.0,41,0.00,,,0.00,406,Wunderground v.1.15,2013-12-30 20:57:00,
2013-12-30 15:02:00,39.8,18.0,30.30,West,281,3.0,4.0,41,0.00,,,0.00,397,Wunderground v.1.15,2013-12-30 21:02:00,
2013-12-30 15:07:00,39.9,18.1,30.30,WNW,294,4.0,5.0,41,0.00,,,0.00,385,Wunderground v.1.15,2013-12-30 21:07:00,
2013-12-30 15:12:00,39.7,17.9,30.30,WNW,292,5.0,5.0,41,0.00,,,0.00,373,Wunderground v.1.15,2013-12-30 21:12:00,
2013-12-30 15:17:00,40.0,18.2,30.30,NW,314,5.0,7.0,41,0.00,,,0.00,359,Wunderground v.1.15,2013-12-30 21:17:00,
2013-12-30 15:22:00,40.1,18.3,30.31,NNW,337,5.0,5.0,41,0.00,,,0.00,345,Wunderground v.1.15,2013-12-30 21:22:00,
2013-12-30 15:27:00,40.4,18.5,30.31,NW,323,4.0,5.0,41,0.00,,,0.00,330,Wunderground v.1.15,2013-12-30 21:27:00,
2013-12-30 15:32:00,40.4,18.0,30.31,North,351,3.0,6.0,40,0.00,,,0.00,316,Wunderground v.1.15,2013-12-30 21:32:00,
2013-12-30 15:38:00,40.6,18.1,30.32,NNW,347,3.0,6.0,40,0.00,,,0.00,301,Wunderground v.1.15,2013-12-30 21:38:00,
2013-12-30 15:43:00,40.5,18.0,30.32,NNE,14,3.0,3.0,40,0.00,,,0.00,288,Wunderground v.1.15,2013-12-30 21:43:00,
2013-12-30 15:49:00,40.9,18.4,30.31,NNE,13,2.0,3.0,40,0.00,,,0.00,272,Wunderground v.1.15,2013-12-30 21:49:00,
2013-12-30 15:54:00,41.0,18.5,30.31,North,355,2.0,5.0,40,0.00,,,0.00,258,Wunderground v.1.15,2013-12-30 21:54:00,
2013-12-30 15:59:00,40.9,18.4,30.31,North,349,2.0,5.0,40,0.00,,,0.00,241,Wunderground v.1.15,2013-12-30 21:59:00,
2013-12-30 16:04:00,40.9,18.4,30.32,NW,311,3.0,7.0,40,0.00,,,0.00,227,Wunderground v.1.15,2013-12-30 22:04:00,
2013-12-30 16:10:00,40.7,18.8,30.32,NNW,332,4.0,4.0,41,0.00,,,0.00,204,Wunderground v.1.15,2013-12-30 22:10:00,
2013-12-30 16:15:00,40.7,18.8,30.32,North,9,3.0,5.0,41,0.00,,,0.00,192,Wunderground v.1.15,2013-12-30 22:15:00,
2013-12-30 16:20:00,40.6,18.1,30.32,NE,44,3.0,5.0,40,0.00,,,0.00,172,Wunderground v.1.15,2013-12-30 22:20:00,
2013-12-30 16:25:00,40.2,18.3,30.32,NNE,26,3.0,5.0,41,0.00,,,0.00,153,Wunderground v.1.15,2013-12-30 22:25:00,
2013-12-30 16:31:00,40.5,18.6,30.32,NNE,25,2.0,2.0,41,0.00,,,0.00,132,Wunderground v.1.15,2013-12-30 22:31:00,
2013-12-30 16:37:00,40.7,18.8,30.33,WNW,291,1.0,3.0,41,0.00,,,0.00,113,Wunderground v.1.15,2013-12-30 22:37:00,
2013-12-30 16:42:00,40.9,18.4,30.33,WNW,295,1.0,2.0,40,0.00,,,0.00,93,Wunderground v.1.15,2013-12-30 22:42:00,
2013-12-30 16:47:00,41.0,19.1,30.33,North,5,1.0,6.0,41,0.00,,,0.00,81,Wunderground v.1.15,2013-12-30 22:47:00,
2013-12-30 16:52:00,40.8,18.9,30.33,NW,321,2.0,5.0,41,0.00,,,0.00,65,Wunderground v.1.15,2013-12-30 22:52:00,
2013-12-30 16:58:00,40.7,18.8,30.33,NE,47,2.0,5.0,41,0.00,,,0.00,47,Wunderground v.1.15,2013-12-30 22:58:00,
2013-12-30 17:03:00,40.6,18.7,30.33,NNE,15,2.0,3.0,41,0.00,,,0.00,37,Wunderground v.1.15,2013-12-30 23:03:00,
2013-12-30 17:08:00,40.4,19.1,30.33,NNW,348,2.0,3.0,42,0.00,,,0.00,26,Wunderground v.1.15,2013-12-30 23:08:00,
2013-12-30 17:13:00,40.2,18.3,30.33,NNW,335,2.0,3.0,41,0.00,,,0.00,19,Wunderground v.1.15,2013-12-30 23:13:00,
2013-12-30 17:18:00,40.1,18.8,30.34,NNW,335,2.0,3.0,42,0.00,,,0.00,14,Wunderground v.1.15,2013-12-30 23:18:00,
2013-12-30 17:24:00,39.9,18.6,30.34,NW,314,1.0,2.0,42,0.00,,,0.00,9,Wunderground v.1.15,2013-12-30 23:24:00,
2013-12-30 17:29:00,39.8,18.5,30.34,NW,314,1.0,2.0,42,0.00,,,0.00,7,Wunderground v.1.15,2013-12-30 23:29:00,
2013-12-30 17:34:00,39.7,18.5,30.35,NW,314,1.0,2.0,42,0.00,,,0.00,5,Wunderground v.1.15,2013-12-30 23:34:00,
2013-12-30 17:39:00,39.6,18.9,30.35,NW,314,0.0,2.0,43,0.00,,,0.00,0,Wunderground v.1.15,2013-12-30 23:39:00,
2013-12-30 17:44:00,39.6,18.9,30.34,NW,314,0.0,0.0,43,0.00,,,0.00,0,Wunderground v.1.15,2013-12-30 23:44:00,
2013-12-30 17:49:00,39.4,18.7,30.35,NW,314,0.0,0.0,43,0.00,,,0.00,0,Wunderground v.1.15,2013-12-30 23:49:00,
2013-12-30 17:55:00,39.3,18.6,30.35,NW,314,0.0,0.0,43,0.00,,,0.00,0,Wunderground v.1.15,2013-12-30 23:55:00,
2013-12-30 18:00:00,39.2,18.5,30.35,NW,314,0.0,0.0,43,0.00,,,0.00,0,Wunderground v.1.15,2013-12-31 00:00:00,
2013-12-30 18:06:00,39.1,19.0,30.35,NW,314,0.0,0.0,44,0.00,,,0.00,0,Wunderground v.1.15,2013-12-31 00:06:00,
2013-12-30 18:11:00,39.0,19.4,30.35,NW,314,0.0,0.0,45,0.00,,,0.00,0,Wunderground v.1.15,2013-12-31 00:11:00,
2013-12-30 18:16:00,39.0,19.4,30.36,NW,314,0.0,0.0,45,0.00,,,0.00,0,Wunderground v.1.15,2013-12-31 00:16:00,
2013-12-30 18:21:00,38.8,21.3,30.36,NW,314,0.0,0.0,49,0.00,,,0.00,0,Wunderground v.1.15,2013-12-31 00:21:00,
2013-12-30 18:27:00,38.5,21.0,30.37,NW,314,0.0,0.0,49,0.00,,,0.00,0,Wunderground v.1.15,2013-12-31 00:27:00,
2013-12-30 18:32:00,38.5,20.0,30.37,NW,314,0.0,0.0,47,0.00,,,0.00,0,Wunderground v.1.15,2013-12-31 00:32:00,
2013-12-30 18:37:00,38.5,20.5,30.37,NW,314,0.0,0.0,48,0.00,,,0.00,0,Wunderground v.1.15,2013-12-31 00:37:00,
2013-12-30 18:42:00,38.4,20.4,30.37,NW,314,0.0,0.0,48,0.00,,,0.00,0,Wunderground v.1.15,2013-12-31 00:42:00,
2013-12-30 18:48:00,38.3,19.3,30.37,NW,314,0.0,0.0,46,0.00,,,0.00,0,Wunderground v.1.15,2013-12-31 00:48:00,
2013-12-30 18:54:00,38.3,18.8,30.38,NW,314,0.0,0.0,45,0.00,,,0.00,0,Wunderground v.1.15,2013-12-31 00:54:00,
2013-12-30 18:59:00,38.2,18.2,30.37,NW,314,0.0,0.0,44,0.00,,,0.00,0,Wunderground v.1.15,2013-12-31 00:59:00,
2013-12-30 19:04:00,38.0,18.5,30.37,NW,314,0.0,0.0,45,0.00,,,0.00,0,Wunderground v.1.15,2013-12-31 01:04:00,
2013-12-30 19:09:00,38.0,18.0,30.38,NW,314,0.0,0.0,44,0.00,,,0.00,0,Wunderground v.1.15,2013-12-31 01:09:00,
2013-12-30 19:14:00,37.9,18.4,30.38,NW,314,0.0,0.0,45,0.00,,,0.00,0,Wunderground v.1.15,2013-12-31 01:14:00,
2013-12-30 19:19:00,38.0,18.5,30.39,NW,314,0.0,0.0,45,0.00,,,0.00,0,Wunderground v.1.15,2013-12-31 01:19:00,
2013-12-30 19:24:00,38.2,18.2,30.39,NW,314,0.0,0.0,44,0.00,,,0.00,0,Wunderground v.1.15,2013-12-31 01:24:00,
2013-12-30 19:29:00,38.2,18.7,30.39,NW,314,0.0,0.0,45,0.00,,,0.00,0,Wunderground v.1.15,2013-12-31 01:29:00,
2013-12-30 19:34:00,38.5,18.4,30.39,NW,314,0.0,0.0,44,0.00,,,0.00,0,Wunderground v.1.15,2013-12-31 01:34:00,
2013-12-30 19:40:00,38.7,18.6,30.39,NW,314,0.0,0.0,44,0.00,,,0.00,0,Wunderground v.1.15,2013-12-31 01:40:00,
2013-12-30 19:45:00,38.7,18.6,30.40,NW,314,0.0,0.0,44,0.00,,,0.00,0,Wunderground v.1.15,2013-12-31 01:45:00,
2013-12-30 19:50:00,38.8,18.2,30.40,NW,314,0.0,0.0,43,0.00,,,0.00,0,Wunderground v.1.15,2013-12-31 01:50:00,
2013-12-30 19:56:00,38.9,18.3,30.40,NW,314,0.0,0.0,43,0.00,,,0.00,0,Wunderground v.1.15,2013-12-31 01:56:00,
2013-12-30 20:01:00,38.9,18.8,30.41,NW,314,0.0,0.0,44,0.00,,,0.00,0,Wunderground v.1.15,2013-12-31 02:01:00,
2013-12-30 20:06:00,38.8,18.7,30.41,NW,314,0.0,0.0,44,0.00,,,0.00,0,Wunderground v.1.15,2013-12-31 02:06:00,
2013-12-30 20:11:00,38.8,18.7,30.41,NW,314,0.0,0.0,44,0.00,,,0.00,0,Wunderground v.1.15,2013-12-31 02:11:00,
2013-12-30 20:16:00,39.0,18.9,30.42,NW,314,0.0,0.0,44,0.00,,,0.00,0,Wunderground v.1.15,2013-12-31 02:16:00,
2013-12-30 20:22:00,39.1,18.5,30.42,NW,314,0.0,0.0,43,0.00,,,0.00,0,Wunderground v.1.15,2013-12-31 02:22:00,
2013-12-30 20:27:00,39.1,19.0,30.42,NW,314,0.0,0.0,44,0.00,,,0.00,0,Wunderground v.1.15,2013-12-31 02:27:00,
2013-12-30 20:32:00,39.0,18.9,30.42,NW,314,0.0,0.0,44,0.00,,,0.00,0,Wunderground v.1.15,2013-12-31 02:32:00,
2013-12-30 20:37:00,39.0,18.9,30.42,NW,314,0.0,0.0,44,0.00,,,0.00,0,Wunderground v.1.15,2013-12-31 02:37:00,
2013-12-30 20:42:00,38.9,18.3,30.43,NW,314,0.0,0.0,43,0.00,,,0.00,0,Wunderground v.1.15,2013-12-31 02:42:00,
2013-12-30 20:47:00,38.8,18.7,30.43,NW,314,1.0,2.0,44,0.00,,,0.00,0,Wunderground v.1.15,2013-12-31 02:47:00,
2013-12-30 20:52:00,38.8,18.7,30.43,NW,314,2.0,3.0,44,0.00,,,0.00,0,Wunderground v.1.15,2013-12-31 02:52:00,
2013-12-30 20:58:00,38.5,19.0,30.43,NW,314,2.0,3.0,45,0.00,,,0.00,0,Wunderground v.1.15,2013-12-31 02:58:00,
2013-12-30 21:04:00,38.4,18.9,30.43,NW,314,2.0,2.0,45,0.00,,,0.00,0,Wunderground v.1.15,2013-12-31 03:04:00,
2013-12-30 21:09:00,38.2,19.2,30.43,NW,314,2.0,2.0,46,0.00,,,0.00,0,Wunderground v.1.15,2013-12-31 03:09:00,
2013-12-30 21:15:00,38.1,19.1,30.44,NW,314,0.0,1.0,46,0.00,,,0.00,0,Wunderground v.1.15,2013-12-31 03:15:00,
2013-12-30 21:20:00,38.0,19.0,30.44,NW,314,0.0,0.0,46,0.00,,,0.00,0,Wunderground v.1.15,2013-12-31 03:20:00,
2013-12-30 21:25:00,38.1,19.6,30.44,NW,314,0.0,2.0,47,0.00,,,0.00,0,Wunderground v.1.15,2013-12-31 03:25:00,
2013-12-30 21:30:00,37.9,19.4,30.44,NW,314,1.0,1.0,47,0.00,,,0.00,0,Wunderground v.1.15,2013-12-31 03:30:00,
2013-12-30 21:35:00,37.7,19.8,30.44,NW,314,0.0,1.0,48,0.00,,,0.00,0,Wunderground v.1.15,2013-12-31 03:35:00,
2013-12-30 21:41:00,37.6,19.7,30.44,NW,314,0.0,1.0,48,0.00,,,0.00,0,Wunderground v.1.15,2013-12-31 03:41:00,
2013-12-30 21:46:00,37.8,20.3,30.44,NW,314,1.0,1.0,49,0.00,,,0.00,0,Wunderground v.1.15,2013-12-31 03:46:00,
2013-12-30 21:52:00,38.0,20.5,30.44,NW,314,1.0,2.0,49,0.00,,,0.00,0,Wunderground v.1.15,2013-12-31 03:52:00,
2013-12-30 21:57:00,38.0,21.0,30.44,NW,314,2.0,2.0,50,0.00,,,0.00,0,Wunderground v.1.15,2013-12-31 03:57:00,
2013-12-30 22:03:00,37.9,21.4,30.44,NW,314,2.0,3.0,51,0.00,,,0.00,0,Wunderground v.1.15,2013-12-31 04:03:00,
2013-12-30 22:09:00,37.8,21.7,30.44,NW,315,1.0,3.0,52,0.00,,,0.00,0,Wunderground v.1.15,2013-12-31 04:09:00,
2013-12-30 22:14:00,37.4,21.4,30.44,NW,315,0.0,1.0,52,0.00,,,0.00,0,Wunderground v.1.15,2013-12-31 04:14:00,
2013-12-30 22:19:00,37.2,21.2,30.44,NW,315,0.0,2.0,52,0.00,,,0.00,0,Wunderground v.1.15,2013-12-31 04:19:00,
2013-12-30 22:25:00,37.2,21.2,30.44,NW,315,1.0,3.0,52,0.00,,,0.00,0,Wunderground v.1.15,2013-12-31 04:25:00,
2013-12-30 22:31:00,37.3,21.3,30.45,NW,314,0.0,1.0,52,0.00,,,0.00,0,Wunderground v.1.15,2013-12-31 04:31:00,
2013-12-30 22:36:00,37.6,20.6,30.44,NW,315,1.0,2.0,50,0.00,,,0.00,0,Wunderground v.1.15,2013-12-31 04:36:00,
2013-12-30 22:41:00,37.6,20.6,30.44,NW,315,2.0,3.0,50,0.00,,,0.00,0,Wunderground v.1.15,2013-12-31 04:41:00,
2013-12-30 22:47:00,37.3,20.8,30.43,NW,315,2.0,3.0,51,0.00,,,0.00,0,Wunderground v.1.15,2013-12-31 04:47:00,
2013-12-30 22:52:00,36.7,20.7,30.43,NNW,337,2.0,2.0,52,0.00,,,0.00,0,Wunderground v.1.15,2013-12-31 04:52:00,
2013-12-30 22:53:00,36.7,20.7,30.43,NNW,337,2.0,2.0,52,0.00,,,0.00,0,Wunderground v.1.15,2013-12-31 04:53:00,
2013-12-30 22:58:00,36.5,21.0,30.44,NNW,337,2.0,2.0,53,0.00,,,0.00,0,Wunderground v.1.15,2013-12-31 04:58:00,
2013-12-30 23:02:00,36.5,21.0,30.44,NNW,337,2.0,2.0,53,0.00,,,0.00,0,Wunderground v.1.15,2013-12-31 05:02:00,
2013-12-30 23:03:00,36.4,20.9,30.44,NNW,337,2.0,3.0,53,0.00,,,0.00,0,Wunderground v.1.15,2013-12-31 05:03:00,
2013-12-30 23:04:00,36.4,20.9,30.44,NNW,337,2.0,3.0,53,0.00,,,0.00,0,Wunderground v.1.15,2013-12-31 05:04:00,
2013-12-30 23:05:00,36.4,20.9,30.44,NNW,337,2.0,3.0,53,0.00,,,0.00,0,Wunderground v.1.15,2013-12-31 05:05:00,
2013-12-30 23:07:00,36.4,20.9,30.44,NNW,337,2.0,3.0,53,0.00,,,0.00,0,Wunderground v.1.15,2013-12-31 05:07:00,
2013-12-30 23:08:00,36.4,20.9,30.44,NNW,337,2.0,4.0,53,0.00,,,0.00,0,Wunderground v.1.15,2013-12-31 05:08:00,
2013-12-30 23:14:00,36.4,20.9,30.44,NNW,344,2.0,3.0,53,0.00,,,0.00,0,Wunderground v.1.15,2013-12-31 05:14:00,
2013-12-30 23:19:00,36.1,21.0,30.44,NNW,340,2.0,4.0,54,0.00,,,0.00,0,Wunderground v.1.15,2013-12-31 05:19:00,
2013-12-30 23:24:00,36.0,20.9,30.44,NNW,343,2.0,2.0,54,0.00,,,0.00,0,Wunderground v.1.15,2013-12-31 05:24:00,
2013-12-30 23:29:00,35.9,21.3,30.44,NNW,342,2.0,3.0,55,0.00,,,0.00,0,Wunderground v.1.15,2013-12-31 05:29:00,
2013-12-30 23:34:00,35.9,20.9,30.44,NNW,341,2.0,4.0,54,0.00,,,0.00,0,Wunderground v.1.15,2013-12-31 05:34:00,
2013-12-30 23:39:00,35.8,20.8,30.44,NNW,341,2.0,4.0,54,0.00,,,0.00,0,Wunderground v.1.15,2013-12-31 05:39:00,
2013-12-30 23:44:00,35.8,20.8,30.43,North,11,1.0,3.0,54,0.00,,,0.00,0,Wunderground v.1.15,2013-12-31 05:44:00,
2013-12-30 23:49:00,35.9,20.9,30.43,NNE,13,2.0,3.0,54,0.00,,,0.00,0,Wunderground v.1.15,2013-12-31 05:49:00,
2013-12-30 23:54:00,35.9,20.4,30.44,North,5,2.0,3.0,53,0.00,,,0.00,0,Wunderground v.1.15,2013-12-31 05:54:00,
2013-12-30 23:59:00,35.9,20.4,30.43,North,5,2.0,3.0,53,0.00,,,0.00,0,Wunderground v.1.15,2013-12-31 05:59:00,